Theta_e
297 297 296 296 295 294 293 293 293 294 294 294 294 295 294 294 295 297 296 297 298 298 297 299 299 302 304 305 305 305 304 305 302 304 307 309 310 311 313 315 314 315 315
295 294 294 292 291 290 290 291 291 290 291 291 291 291 290 291 293 293 292 296 294 293 296 297 299 303 302 301 300 300 302 302 300 298 302 304 306 310 311 312 313 315 314
292 292 290 289 288 288 288 289 288 288 288 288 288 288 288 289 291 290 291 293 291 291 294 296 300 298 297 295 296 299 299 297 298 298 300 303 304 307 308 310 311 313 314
290 289 287 286 286 286 286 286 286 287 286 286 287 286 287 288 288 288 290 290 290 292 295 298 294 293 294 294 296 292 292 293 294 294 295 298 300 302 304 304 305 308 306
287 286 285 285 285 284 284 284 285 285 285 285 285 285 285 286 287 288 289 289 290 288 288 290 290 292 294 297 295 292 291 291 292 290 292 294 294 296 297 301 301 304 306
285 283 284 283 283 283 283 283 283 283 283 283 283 283 283 285 290 291 291 290 288 285 284 286 288 290 291 296 296 296 294 291 289 289 290 290 292 294 296 297 297 296 296
282 282 282 282 282 282 282 282 281 281 282 281 282 282 282 283 289 291 292 288 285 285 285 286 287 289 290 291 293 295 294 294 294 291 290 291 292 294 295 294 294 295 297
281 281 281 281 281 281 281 280 280 281 281 281 281 282 282 283 288 290 290 286 285 285 286 286 286 287 289 290 290 289 289 289 290 292 293 294 295 296 297 297 296 296 298
280 280 280 280 280 280 280 279 280 280 280 280 281 281 281 281 287 289 288 285 285 285 286 287 287 287 290 291 288 287 286 287 292 296 296 296 297 296 296 296 294 293 293
279 279 280 280 280 279 279 279 280 280 280 281 281 281 283 281 286 288 288 286 284 285 287 287 289 288 290 291 287 286 286 288 291 291 290 291 292 292 295 294 292 288 289
279 279 280 280 279 279 279 279 280 279 280 279 279 280 281 283 284 288 289 286 285 286 285 284 285 289 290 289 290 287 287 289 289 288 287 287 288 289 289 290 289 287 285
279 279 279 278 279 281 278 278 279 278 278 278 278 279 282 283 286 287 288 289 289 284 284 285 285 288 288 288 287 288 288 289 287 285 284 285 286 286 287 287 285 285 285
277 277 277 278 278 278 277 278 278 278 278 277 278 279 280 282 282 287 288 289 288 285 285 286 286 286 286 284 285 287 287 284 284 283 284 284 285 286 286 283 284 283 281
276 276 277 277 279 279 278 278 278 277 277 278 279 280 280 281 281 282 284 284 286 285 286 282 283 284 284 283 282 283 283 283 283 283 283 285 285 284 283 282 281 281 279
276 277 277 277 277 277 278 278 278 279 280 280 280 280 280 279 281 285 285 283 283 286 284 280 278 279 278 278 279 281 281 282 282 282 283 283 282 282 281 281 281 280 278
277 277 277 278 277 278 278 277 282 283 285 285 285 283 282 284 286 286 286 286 287 285 280 277 276 277 277 277 278 278 280 280 280 281 283 282 281 281 281 280 280 279 277
276 277 277 278 277 277 277 277 276 280 283 284 284 284 284 284 285 284 285 285 285 283 278 276 276 276 277 277 277 278 278 278 280 280 282 282 281 280 280 279 280 279 277
276 281 278 277 277 277 277 278 278 277 277 277 281 282 283 284 283 284 284 283 278 279 278 276 276 276 277 276 277 278 277 278 279 280 282 280 280 279 279 279 279 277 276
277 277 277 278 278 279 278 278 278 277 277 277 278 280 281 283 283 283 282 276 276 277 277 276 277 277 277 276 277 277 277 277 279 280 281 280 279 279 279 279 279 279 277
277 280 280 278 278 278 277 277 277 277 277 277 277 277 278 279 278 276 276 276 277 277 276 276 277 277 276 276 277 277 276 277 278 280 280 279 279 279 279 278 278 276 275
277 277 280 278 277 277 277 277 277 277 277 277 276 278 282 279 276 275 275 276 276 276 276 277 277 276 276 277 277 276 276 276 278 280 279 279 279 277 277 277 275 275 273
277 277 277 277 277 277 277 278 278 277 277 276 276 278 281 277 275 275 276 276 276 277 277 277 276 276 277 277 276 276 276 276 278 280 279 278 277 277 276 274 273 271 270
277 276 276 277 278 279 278 278 277 277 277 277 277 277 276 276 276 276 276 276 276 276 276 276 276 276 277 277 277 277 276 277 280 280 279 277 276 275 274 272 270 268 268
277 277 277 277 277 277 276 276 276 276 276 276 276 276 276 276 276 275 275 276 276 276 275 276 276 276 276 277 277 278 279 281 281 280 279 277 275 273 271 268 268 266 268
277 276 276 276 275 274 274 274 274 275 275 275 275 275 276 276 275 275 275 275 275 274 275 275 276 276 276 276 277 278 280 284 281 279 277 274 271 268 267 268 268 267 268
276 275 274 274 273 273 273 273 273 273 273 274 275 275 275 275 275 275 275 275 274 274 273 275 276 276 276 277 278 280 286 284 281 280 275 272 270 269 270 268 269 274 274
Wind_Speed
7 6 6 6 6 6 7 8 8 8 10 11 11 11 12 13 12 11 13 14 12 13 13 13 14 12 8 7 8 8 9 9 13 17 12 12 13 12 14 11 12 14 14
6 6 6 6 8 9 10 10 10 10 11 11 12 12 12 13 13 12 14 12 15 15 15 15 14 8 11 9 8 11 10 10 10 16 18 13 14 14 15 14 13 11 13
6 5 6 8 8 8 9 9 10 10 10 11 11 12 13 13 13 13 13 15 15 15 15 16 13 13 11 10 11 9 9 10 11 12 14 12 13 12 13 13 12 12 9
5 6 7 7 7 7 7 8 9 9 10 11 11 12 12 13 14 12 15 16 16 14 14 11 11 11 13 15 12 9 10 11 11 11 13 14 13 13 12 11 11 7 8
5 6 6 6 6 6 6 7 8 9 10 11 13 14 13 13 11 17 16 15 13 14 14 13 12 14 22 18 10 13 12 10 10 11 13 13 14 13 14 12 14 13 14
6 6 6 6 6 7 8 10 11 11 12 12 13 13 14 11 25 27 23 16 14 14 15 15 13 18 17 23 23 25 20 14 15 12 12 15 19 14 13 12 14 13 16
5 5 6 6 7 8 9 9 10 11 10 11 12 13 14 15 27 28 28 14 13 13 14 15 15 11 19 14 21 24 20 24 24 18 17 16 19 16 16 16 17 15 15
5 6 6 6 7 7 8 9 9 9 11 12 12 13 14 13 27 28 28 16 14 15 14 15 15 16 15 21 20 20 17 17 17 13 16 16 16 18 17 16 19 19 17
5 5 6 6 8 9 10 10 10 10 11 11 12 14 14 15 26 27 25 15 14 15 14 14 15 16 23 31 22 20 20 19 20 24 25 27 27 31 28 17 15 13 14
6 6 6 6 7 9 9 10 9 9 11 11 13 12 17 15 20 27 24 12 14 12 12 13 22 23 31 32 23 20 18 15 16 18 16 18 19 19 28 12 10 12 11
6 6 6 6 7 7 7 8 10 10 11 11 12 12 12 13 16 27 27 15 12 12 11 12 12 28 32 35 33 16 18 22 21 14 15 13 13 12 12 10 10 9 10
6 6 7 7 7 8 9 9 9 9 10 12 12 12 10 12 20 22 28 28 26 14 14 12 14 32 33 32 25 31 31 25 11 12 13 12 13 12 11 10 8 7 5
6 7 7 8 7 7 7 10 8 8 9 10 10 11 11 11 10 23 26 27 26 18 12 20 31 31 29 22 27 31 26 12 11 11 12 12 11 11 12 7 5 4 4
7 7 7 6 10 7 6 6 7 7 8 10 10 11 11 11 10 11 11 13 19 15 13 12 22 25 22 23 18 15 11 13 13 13 11 12 11 10 9 5 3 1 2
6 7 7 6 7 9 7 7 8 8 9 12 11 11 12 11 12 24 22 15 14 14 20 11 12 12 12 13 12 12 12 13 12 13 12 11 10 10 8 2 2 1 1
7 6 7 7 6 7 9 10 15 18 22 23 24 19 12 22 28 29 29 29 29 27 12 11 12 12 13 13 13 14 13 16 13 14 12 11 10 9 8 2 2 0 2
6 8 7 9 7 8 9 10 12 11 19 23 23 23 25 25 28 29 29 29 26 24 9 10 11 12 12 12 13 13 14 14 15 13 12 9 9 8 8 1 1 2 3
7 15 8 8 8 8 9 10 10 11 11 11 16 21 23 26 27 28 27 25 13 11 8 10 11 12 12 13 13 13 14 13 13 13 11 9 8 6 2 1 2 3 4
7 7 7 7 7 11 10 10 9 10 10 11 11 14 18 25 27 20 23 11 12 9 9 10 11 11 12 13 13 13 14 14 15 14 10 8 7 4 2 2 3 7 6
7 15 14 8 8 9 9 10 10 10 11 11 10 11 11 15 8 9 10 10 11 9 10 11 12 12 12 13 13 13 13 14 13 11 9 6 5 3 2 3 4 4 3
6 7 15 9 9 9 10 10 10 10 9 11 11 12 27 15 10 10 10 10 10 10 11 11 12 12 12 12 13 13 13 13 12 9 7 5 4 3 3 4 5 4 2
6 7 8 9 9 10 10 10 10 10 11 11 11 12 22 10 9 10 10 10 10 10 9 11 12 12 12 13 13 13 13 12 11 8 5 4 4 4 4 4 3 2 2
7 8 9 9 9 15 11 10 9 10 11 11 10 10 10 10 10 10 10 10 10 10 10 10 12 12 12 13 12 11 12 11 9 6 4 3 2 3 3 2 2 3 2
8 9 9 10 10 11 10 11 10 15 13 11 11 11 10 10 11 11 10 10 10 10 10 11 12 16 15 15 12 12 11 10 4 4 4 3 3 4 3 2 1 3 3
7 7 9 9 10 10 10 10 10 10 11 11 11 10 10 11 11 10 10 10 9 10 12 13 11 16 18 22 19 19 18 8 5 5 3 4 5 4 3 2 3 2 3
7 8 9 8 9 9 9 10 10 10 10 10 10 9 9 10 10 10 9 9 10 11 14 11 15 20 22 16 17 22 12 9 7 8 4 3 2 3 3 3 5 4 5
Wind_Direction
29 20 25 13 1 352 359 352 350 342 342 341 340 337 336 334 330 326 324 316 318 324 319 314 309 305 303 311 308 304 304 305 300 301 296 292 285 282 279 261 256 257 260
24 24 20 7 8 8 358 351 348 346 344 341 339 336 336 332 329 329 320 319 333 323 316 314 308 309 309 310 307 302 301 302 295 292 297 297 285 289 282 275 272 258 256
20 30 22 14 5 355 347 345 343 340 338 338 336 336 333 330 325 323 325 326 325 322 312 308 303 319 311 317 304 303 316 312 308 295 299 305 300 302 296 281 271 263 253
23 27 20 5 353 345 332 334 337 337 335 335 333 330 329 326 325 326 323 327 322 318 312 313 323 318 317 311 306 319 320 313 309 310 300 296 297 304 302 299 290 275 265
24 17 1 343 334 326 326 328 330 336 337 334 332 332 330 329 326 328 326 327 325 325 327 319 318 315 311 302 323 321 318 310 309 307 300 300 301 306 305 308 293 293 280
15 360 345 340 333 334 337 338 339 338 335 332 329 324 323 320 322 327 331 321 331 324 321 320 319 318 316 311 314 315 312 314 306 297 298 297 297 299 296 298 300 293 289
353 343 342 337 337 336 333 331 327 325 321 324 322 321 319 318 321 326 328 328 324 319 318 317 313 316 316 304 309 310 311 310 300 294 290 286 289 289 289 288 287 283 281
338 338 332 331 327 321 323 323 318 322 326 323 319 317 315 315 322 325 326 324 320 317 312 307 309 311 315 316 314 310 309 302 296 287 281 292 296 297 289 283 282 278 275
328 320 323 328 327 330 327 321 321 323 321 316 313 313 313 312 319 323 327 321 315 310 307 310 309 311 313 317 313 309 304 297 292 292 301 301 297 303 290 284 278 274 275
325 319 315 318 319 316 309 314 312 309 309 310 308 306 308 309 313 324 324 316 310 309 311 301 312 315 316 316 316 305 295 294 303 311 311 307 302 293 295 301 301 285 280
307 309 313 304 303 296 309 307 305 307 307 303 306 309 307 312 317 320 321 317 314 317 314 314 312 314 317 318 315 321 311 316 313 314 303 302 300 294 299 294 285 272 271
315 314 301 295 300 304 295 297 300 308 309 312 311 311 310 313 314 318 320 320 324 322 315 315 309 320 320 317 324 316 314 317 307 300 301 303 306 303 302 301 287 285 278
311 302 299 292 287 285 294 304 306 308 308 305 309 306 312 315 313 313 314 319 324 322 315 314 326 322 322 324 317 321 322 311 303 301 305 302 299 298 297 280 267 271 327
303 300 296 292 309 303 286 288 300 303 305 307 304 309 311 311 310 309 314 316 315 320 311 328 327 318 321 321 319 317 310 310 309 304 302 295 299 299 288 271 270 290 312
296 293 298 301 289 294 289 300 305 302 299 307 309 309 313 311 309 319 324 320 319 325 331 335 325 320 322 321 317 314 310 311 312 307 302 302 303 301 291 272 263 273 18
307 311 307 303 290 299 307 308 307 307 309 311 314 313 312 314 316 323 325 323 326 331 338 327 320 321 321 321 316 314 313 319 311 307 301 303 303 304 298 266 263 80 100
296 303 296 305 301 305 304 302 307 308 309 311 314 316 317 315 322 322 326 323 331 332 325 318 314 320 319 317 310 310 316 314 306 305 303 309 305 303 304 262 309 90 81
292 303 301 298 295 296 296 300 304 308 312 309 311 314 317 320 322 321 329 335 317 317 315 315 316 317 317 313 312 312 311 311 309 307 311 309 306 300 288 252 84 96 91
294 288 287 285 287 300 304 301 300 302 303 305 308 310 315 317 317 330 332 320 313 305 323 319 318 313 313 312 307 310 310 309 310 309 314 315 314 311 349 65 107 114 104
277 301 312 307 300 302 301 298 301 303 302 303 307 309 312 311 322 328 326 318 313 323 321 317 316 314 314 309 310 311 310 311 312 309 323 323 325 338 27 64 71 76 69
290 294 306 305 296 297 299 299 297 295 294 303 303 302 313 323 328 320 314 314 319 316 315 314 313 315 313 308 310 310 310 308 311 319 326 333 343 27 41 60 69 76 109
287 294 297 297 298 298 296 293 298 301 296 301 302 302 313 324 311 307 308 313 312 309 312 309 313 313 308 310 309 309 309 309 311 327 332 350 6 30 46 60 65 56 66
294 292 293 293 293 298 300 295 296 299 300 302 306 314 314 310 308 307 310 311 310 314 311 310 310 310 310 308 308 305 305 306 312 320 340 2 2 41 54 66 44 41 33
287 288 293 297 298 297 303 301 301 306 306 309 310 308 307 309 308 310 311 306 310 311 309 308 307 307 308 311 312 310 306 302 318 340 12 11 32 49 43 41 18 34 29
292 291 294 297 298 298 301 300 300 303 304 302 303 304 306 304 304 306 303 304 311 308 312 310 306 310 312 314 311 312 314 8 13 27 29 53 62 48 28 39 25 13 35
298 298 297 296 293 293 295 298 296 294 294 294 294 295 297 300 302 301 302 311 311 313 308 307 308 310 313 313 312 320 347 27 35 56 55 40 52 43 31 33 34 39 36